Regional Weather Roundup
Issued by NWS

Home | Current Version | Previous Version | Graphics & Text | Print | Product List | Glossary On
Versions: 1 2 3 4 5 6 7 8 9 10 11 12 13 14 15 16 17 18 19 20 21 22 23 24 25 26 27 28 29 30 31 32 33 34 35 36 37 38 39 40 41 42 43 44 45 46 47 48 49 50
000
ASUS43 KLMK 251202
RWRKY
KENTUCKY REGIONAL WEATHER ROUNDUP
NATIONAL WEATHER SERVICE LOUISVILLE KY
700 AM EST SUN JAN 25 2015

NOTE "FAIR" INDICATES FEW OR NO CLOUDS BELOW 12,000 FEET
WITH NO SIGNIFICANT WEATHER AND/OR OBSTRUCTIONS TO VISIBILITY.

KYZ001>023-026-027-061>063-070>075-251300-
WESTERN AND SOUTH CENTRAL KENTUCKY

CITY           SKY/WX    TMP DP  RH WIND       PRES   REMARKS
PADUCAH        MOCLDY    42  32  67 SW9       29.70F
HENDERSON      CLOUDY    43  30  61 S10       29.69S
OWENSBORO      MOCLDY    40  33  76 S9        29.71S WCI  34
HOPKINSVILLE   MOCLDY    40  32  74 S9        29.74F WCI  34
BOWLING GREEN  CLOUDY    36  30  79 S6        29.77F WCI  31
GLASGOW        NOT AVBL
$$

KYZ024-025-028>034-038-045-046-053-251300-
NORTH CENTRAL KENTUCKY

CITY           SKY/WX    TMP DP  RH WIND       PRES   REMARKS
LOUISVILLE/SDF CLOUDY    39  30  70 SE9       29.72F WCI  33
LOUISVILLE/LOU CLOUDY    39  30  70 S6        29.72F WCI  35
FORT KNOX      CLOUDY    37  31  77 S10       29.71F WCI  30
$$

KYZ035>037-039>044-047>052-055>060-089>105-251300-
NORTHEAST KENTUCKY

CITY           SKY/WX    TMP DP  RH WIND       PRES   REMARKS
LEXINGTON      MOCLDY    34  30  85 S10       29.76F WCI  26
COVINGTON      CLOUDY    37  30  75 S8        29.71F WCI  31
FRANKFORT      MOCLDY    37  30  75 S9        29.73F WCI  30
$$

KYZ054-064>069-076>088-106>120-251300-
SOUTHEAST KENTUCKY

CITY           SKY/WX    TMP DP  RH WIND       PRES   REMARKS
JACKSON        CLEAR     35  28  75 VRB3      29.80S
LONDON         MOCLDY    35  27  72 SE6       29.81F WCI  30
SOMERSET       NOT AVBL
MIDDLESBORO    NOT AVBL
MONTICELLO     PTSUNNY   37  31  79 CALM      29.83S
$$




USA.gov is the U.S. government's official web portal to all federal, state and local government web resources and services.